Regional Weather Roundup
Issued by NWS Jackson, KY

Home | Current Version | Previous Version | Text Only | Print | Product List | Glossary Off
Versions: 1 2 3 4 5 6 7 8 9 10 11 12 13 14 15 16 17 18 19 20 21 22 23 24 25 26 27 28 29 30 31 32 33 34 35 36 37 38 39 40 41 42 43 44 45 46 47 48 49 50

000
ASUS43 KJKL 182311
RWRJKL

EAST KENTUCKY HOURLY WEATHER ROUNDUP
NATIONAL WEATHER SERVICE JACKSON KY
600 PM EST THU DEC 18 2014

NOTE: "FAIR" INDICATES FEW OR NO CLOUDS BELOW 12,000 FEET WITH
NO SIGNIFICANT WEATHER AND/OR OBSTRUCTIONS TO VISIBILITY.

* THESE REPORTS ARE NOT UNDER NWS QUALITY CONTROL AND MAY NOT
  REPORT WEATHER SUCH AS PRECIPITATION AND FOG.

KYZ079-080-083-085-087-088-110-112-115-119-120-190000
...EASTERN KENTUCKY...

CITY           SKY/WX    TMP DP  RH WIND       PRES   REMARKS
JACKSON        CLOUDY    33  24  69 CALM      30.16S
LONDON         CLOUDY    36  25  64 W3        30.18R
SOMERSET*      CLOUDY    34  27  75 CALM      30.21F
MONTICELLO*    CLOUDY    36  29  76 CALM      30.22F
MIDDLESBORO*   CLOUDY    39  29  69 N3        30.17S
HARLAN APT*    CLOUDY    37  27  65 CALM      30.15F
HAZARD APT*    CLOUDY    36  27  69 CALM      30.16F
BLACK MTN*       N/A     28  21  74 SW3         N/A
PIKEVILLE APT* CLOUDY    32  25  74 CALM      30.15F
BIG SANDY*     CLOUDY    32  26  76 CALM      30.17S
MOREHEAD APT*  CLOUDY    30  23  74 NW3       30.22S
$$

KYZ035-036-041-042-044-050-067-078-099-190000
...CENTRAL KENTUCKY...

CITY           SKY/WX    TMP DP  RH WIND       PRES   REMARKS
MT STERLING*   CLOUDY    32  27  80 CALM      30.21S
FLEMING/MASON* CLOUDY    28  23  80 CALM      30.22R
DANVILLE*      CLOUDY    32  27  80 CALM      30.21S
RICHMOND*      CLOUDY    32  25  74 CALM      30.19S
LEXINGTON      CLOUDY    31  24  75 CALM      30.20S
FRANKFORT      CLOUDY    31  23  72 CALM      30.21R
$$

KYZ091>093-OHZ055-061-077-WVZ005-015-034-035-042-190000
...SOUTHERN OHIO/WEST VIRGINIA...

CITY           SKY/WX    TMP DP  RH WIND       PRES   REMARKS
COVINGTON      CLOUDY    29  19  66 CALM      30.21S
COLUMBUS       CLOUDY    28  20  71 W5        30.20F WCI  23
DAYTON         CLOUDY    28  22  78 NW3       30.21S
WILMINGTON     CLOUDY    27  19  72 CALM      30.19F
HUNTINGTON     CLOUDY    30  22  72 NW5       30.20S WCI  25
CHARLESTON     CLOUDY    31  22  69 VRB3      30.18S
PINEVILLE*     CLOUDY    37  29  74 MISG      30.16F
BECKLEY        CLOUDY    30  22  72 NW3       30.09S
BLUEFIELD      CLOUDY    35  20  54 W9        30.09R WCI  28
$$

VAZ002-007-008-TNZ017-027-036-066-071-190000
...SOUTHWEST VIRGINIA/EAST TENNESSEE...

CITY           SKY/WX    TMP DP  RH WIND       PRES   REMARKS
WISE*          CLOUDY    34  23  64 NW3       30.11S
JONESVILLE*    CLOUDY    39  25  56 CALM      30.17R
ABINGDON*      CLOUDY    40  24  52 W3        30.12S
BRISTOL        CLOUDY    40  28  62 CALM      30.14S
KNOXVILLE      CLOUDY    43  32  65 SE3       30.16F
OAK RIDGE      CLOUDY    45  30  55 CALM      30.18R
CROSSVILLE     CLOUDY    38  28  67 N3        30.15S
NASHVILLE      CLOUDY    37  31  78 NE3       30.21S
$$

...KEY TO REMARKS...
VSB - VISIBILITY IN MILES
WCI - WIND CHILL INDEX
HX  - HEAT INDEX

$$


USA.gov is the U.S. government's official web portal to all federal, state and local government web resources and services.